Location: Melque
(41.0517°N, 4.4694°W)
Time: 01:55:25
(UTC+00:00)

Cosmos 1758 Rocket - Pass Details

Date: 11 December 2025
Orbit: 595 x 629 km, 82.5° (Epoch: 14 January)

Event Time Altitude Azimuth Distance (km) Brightness Sun altitude
Rises 17:25:10 0° 349° (N) 2,858 6.8 -6.8°
Reaches altitude 10° 17:27:24 10° 347° (NNW) 1,947 6.0 -7.2°
Maximum altitude 17:31:40 70° 265° (W) 638 3.9 -7.9°
Drops below altitude 10° 17:35:53 10° 182° (S) 1,923 6.4 -8.6°
Sets 17:38:05 0° 180° (S) 2,820 7.3 -9.0°
